Theta_e
296 296 299 300 300 300 301 303 307 309 309 309 309 309 307 307 306 304 291 295 291 285 284 286 285 283 282 280 275 276 277 276 274 274 274 270 267 267 268 268 267 267 265 261 257 258 264 272 271 269 272 271 273 271
295 296 298 299 298 296 298 303 306 307 309 309 309 309 309 307 306 305 288 291 290 284 281 283 282 283 286 287 280 280 280 276 278 277 273 270 267 265 268 266 270 269 270 267 268 269 269 275 269 268 267 270 271 271
294 293 293 294 295 296 297 302 305 306 307 308 308 308 308 308 307 304 291 287 285 280 279 281 280 282 286 285 287 280 279 283 279 280 274 273 271 269 266 265 265 267 264 266 267 270 270 273 267 268 269 270 271 271
295 294 293 293 294 294 298 303 304 305 306 307 307 307 307 308 308 305 292 292 288 283 277 275 282 279 283 285 284 284 281 281 280 279 274 271 272 272 269 270 270 268 269 266 267 270 270 271 270 270 270 270 268 267
294 294 293 293 292 295 302 303 304 305 306 307 307 307 307 308 307 301 294 290 289 288 273 273 278 279 283 285 284 284 283 281 278 275 272 270 272 270 269 268 265 269 269 270 271 273 272 273 274 271 269 268 268 266
293 294 294 294 293 296 299 300 302 304 304 306 306 307 308 304 296 291 284 285 288 285 277 272 275 277 282 284 282 280 280 278 277 276 271 270 272 271 264 264 272 272 272 274 273 273 267 266 274 272 270 268 267 265
293 294 295 295 294 296 297 296 297 300 302 304 306 305 301 299 295 288 285 286 288 285 275 270 271 275 276 278 277 277 277 275 277 273 269 269 270 270 258 263 271 273 273 269 269 270 268 266 267 269 268 267 265 263
293 293 294 295 295 295 297 297 296 298 300 301 304 300 300 298 293 285 288 292 288 280 278 270 268 273 276 274 272 276 274 276 272 271 270 270 270 265 265 267 268 270 269 268 268 265 267 267 266 263 263 262 260 260
293 293 293 295 294 295 297 297 296 297 300 300 303 299 289 285 282 282 292 289 285 280 271 271 269 268 275 272 273 274 277 271 270 271 271 272 267 268 272 271 269 268 271 270 261 261 262 263 264 262 260 259 259 259
292 293 294 295 294 296 296 297 297 296 296 294 288 282 277 281 292 292 284 279 276 274 275 270 273 267 272 271 271 272 272 269 268 269 270 269 267 270 269 272 274 271 267 265 262 259 257 259 262 260 261 262 262 261
292 293 293 294 295 296 296 296 294 293 290 283 279 279 284 290 283 280 275 274 271 268 270 268 269 269 274 270 269 272 270 269 268 267 269 264 261 268 270 274 271 270 267 269 262 267 265 265 263 260 255 256 257 256
293 293 294 294 294 294 296 295 292 284 282 282 284 285 283 279 275 272 269 270 271 266 262 264 267 269 272 275 271 270 267 268 267 263 267 260 266 263 262 263 265 267 267 260 258 262 261 263 263 261 259 256 254 251
292 293 294 294 295 292 295 293 292 291 286 283 279 274 274 272 270 269 265 261 258 259 263 266 267 270 271 272 269 269 267 265 265 260 262 265 263 262 259 260 259 260 259 258 256 256 256 254 256 256 254 250 250 250
293 294 294 295 294 293 293 291 287 282 276 272 271 267 264 267 262 262 255 254 256 258 267 266 265 268 270 268 269 264 260 264 263 259 262 262 258 258 259 258 259 258 258 258 256 256 255 254 251 251 252 250 251 249
294 294 294 293 289 288 285 282 279 269 263 261 265 258 258 257 257 252 252 253 257 262 264 265 267 268 266 263 262 261 260 262 262 263 260 256 255 258 258 258 258 257 256 255 254 255 254 252 253 249 244 245 247 247
292 292 291 291 289 286 282 276 267 261 257 256 255 258 258 257 257 256 254 258 264 267 267 271 268 266 262 263 261 262 263 261 259 252 253 254 255 256 255 255 255 254 253 252 252 251 250 251 251 249 242 242 243 246
290 285 289 288 285 282 280 265 262 255 254 253 254 252 252 254 255 254 254 260 264 266 265 262 262 259 259 255 253 248 256 252 253 252 252 252 253 253 252 252 251 250 250 249 249 248 245 243 244 245 248 247 244 245
285 287 288 286 279 275 263 261 258 256 253 251 256 256 253 255 258 258 260 264 264 262 259 257 257 252 250 253 248 247 250 250 250 250 250 250 251 251 251 249 246 246 246 245 245 244 243 244 247 249 246 244 242 242
283 283 285 283 278 266 263 262 259 253 252 254 259 261 257 258 260 259 260 262 262 260 258 254 249 244 245 246 246 248 248 248 249 252 251 248 249 249 251 250 249 249 247 245 244 246 246 247 249 246 245 243 246 244
284 283 282 281 277 266 261 259 260 260 257 259 259 259 259 258 259 259 258 258 258 256 251 249 247 247 247 248 249 249 250 250 248 252 253 253 252 252 249 247 247 244 245 244 244 247 246 246 244 243 243 245 244 247
278 277 278 271 265 262 258 256 260 262 263 261 260 262 260 260 256 255 255 257 252 249 249 250 249 250 252 250 251 250 251 250 249 248 249 250 249 249 248 244 244 243 246 246 245 245 245 245 246 244 243 244 243 245
270 276 267 270 264 262 260 259 262 262 262 260 260 259 257 256 254 252 255 251 250 250 251 251 251 250 251 250 250 250 248 247 246 246 248 247 247 248 248 245 244 245 243 244 243 245 246 245 243 242 241 243 243 242
269 269 263 263 264 263 259 259 260 257 261 258 257 257 253 253 252 255 250 251 250 252 251 250 250 250 249 249 248 248 247 247 247 247 247 244 241 241 241 242 240 242 245 245 243 243 244 246 245 245 244 243 242 242
261 251 252 251 256 254 253 253 252 254 254 255 255 252 251 250 252 251 247 249 250 252 251 250 249 250 249 249 249 248 246 243 244 244 242 240 242 242 240 241 241 242 244 244 242 243 242 243 245 242 242 240 239 239
260 248 249 249 248 251 250 250 250 252 247 243 249 248 248 247 247 246 247 249 250 250 250 250 249 248 247 247 247 245 244 242 244 245 245 240 240 240 243 242 243 244 241 242 242 242 242 240 240 240 241 240 243 244
245 242 244 239 245 247 243 245 244 244 242 244 243 244 242 245 244 243 244 248 247 249 249 247 245 245 245 245 245 248 245 241 241 241 244 241 242 243 242 243 244 246 241 242 243 243 244 245 244 245 246 246 247 247
245 242 240 240 242 242 243 241 242 243 241 241 241 242 243 241 240 245 248 249 249 249 249 250 248 247 248 249 249 248 247 243 245 246 247 245 246 245 246 244 243 247 244 243 243 243 245 247 247 248 248 248 246 247
239 238 243 241 240 238 238 238 239 238 238 240 240 240 240 241 244 248 250 251 251 250 248 246 245 244 245 247 248 247 246 242 244 246 242 243 242 242 242 244 247 254 251 248 248 249 248 248 248 248 248 248 249 247
241 238 240 240 239 240 240 239 240 240 242 238 240 240 244 246 247 249 250 249 245 242 244 246 247 244 247 247 247 247 244 240 243 244 242 244 243 247 242 242 244 246 247 247 250 254 252 251 251 251 250 250 251 251
241 237 240 238 242 242 243 241 242 241 242 241 242 246 248 249 248 244 244 243 245 245 243 241 243 239 243 242 246 247 243 239 242 244 243 244 245 247 248 249 249 248 247 247 248 249 252 251 250 247 246 247 246 247
237 239 243 244 245 245 244 244 244 241 239 244 244 245 244 245 249 245 244 240 240 239 242 246 247 241 240 247 243 246 247 244 242 245 247 248 249 249 249 249 250 249 249 249 248 248 248 248 248 248 247 247 247 248
240 239 245 245 245 246 245 245 246 248 247 248 246 244 245 246 247 250 245 240 242 245 247 241 242 249 249 248 247 246 248 249 249 249 248 249 250 250 251 251 251 252 251 251 251 251 251 250 250 250 249 249 249 249
241 241 241 244 246 246 247 247 246 246 245 243 243 238 238 242 247 249 243 239 244 244 246 246 248 250 251 250 250 250 250 248 248 253 254 254 253 254 253 253 253 252 252 251 251 251 251 251 250 250 250 250 250 250
Wind_Speed
14 14 28 28 19 16 19 21 24 23 30 28 26 30 45 44 42 24 5 3 5 4 5 3 6 13 8 9 9 12 7 2 2 5 7 5 4 8 4 3 8 10 10 6 4 2 12 12 6 11 7 3 9 7
8 9 16 18 8 11 21 26 23 21 30 30 29 27 30 41 41 35 4 4 6 8 3 2 3 2 1 7 11 16 4 12 9 6 4 5 4 3 6 5 2 5 9 10 13 11 0 22 4 3 4 6 7 9
8 6 2 6 10 15 24 25 24 25 28 27 29 28 27 36 41 33 8 7 7 6 4 2 2 4 4 5 4 9 1 7 4 2 6 4 6 6 8 8 3 5 3 4 3 5 7 18 2 2 4 5 4 5
10 9 3 8 15 25 24 22 25 30 31 32 30 30 29 29 34 33 9 7 8 6 5 0 2 4 4 4 7 4 8 6 6 2 3 4 4 4 5 4 4 5 13 8 6 3 3 6 9 9 7 6 6 5
3 5 4 7 14 23 23 21 20 23 27 28 26 26 26 30 35 18 8 2 4 7 6 3 4 5 2 9 9 8 8 7 2 3 3 3 3 5 1 3 4 8 10 10 11 12 7 7 19 14 14 13 12 11
4 3 5 7 9 7 15 17 16 16 23 23 23 22 25 34 37 13 4 2 2 6 8 5 1 3 3 13 13 10 5 4 3 3 3 0 2 3 5 5 5 13 8 6 6 10 3 2 12 17 15 15 13 11
5 5 7 11 14 3 13 15 9 14 19 15 24 31 41 39 17 9 8 12 14 5 8 6 3 3 4 5 3 3 4 3 3 1 2 3 2 3 3 6 5 12 9 5 7 11 3 3 8 12 11 12 10 6
6 7 9 13 12 8 13 17 13 7 17 17 26 35 35 29 18 8 6 26 13 9 5 7 3 3 1 3 3 1 3 2 3 3 1 2 2 3 6 6 3 7 8 5 8 4 0 10 12 8 10 11 9 8
7 7 8 11 11 9 12 15 13 9 18 27 29 33 10 6 4 5 21 17 7 6 7 4 7 6 4 3 3 2 1 3 0 2 2 2 2 10 8 8 8 11 14 14 8 7 5 6 13 12 10 10 10 9
5 6 8 11 11 14 16 18 32 31 25 20 8 5 4 2 35 20 5 4 5 4 3 4 4 5 4 2 3 4 1 4 4 2 3 3 8 5 5 7 9 14 10 19 9 4 3 4 12 15 16 12 10 10
4 5 8 12 13 19 26 28 22 17 16 5 5 4 9 11 4 4 4 4 3 4 1 3 3 8 1 4 4 1 3 3 4 3 4 3 8 5 2 11 8 11 16 14 2 2 6 8 15 15 7 7 7 8
8 9 11 10 13 10 22 20 13 8 4 6 7 4 3 3 4 6 3 3 3 6 1 6 4 4 3 4 5 2 4 1 4 3 3 5 6 4 6 6 5 6 12 8 3 9 7 9 11 11 9 8 7 5
9 8 13 11 17 20 17 16 29 27 10 7 5 5 4 4 4 5 7 1 4 4 5 5 6 5 3 3 5 3 4 3 3 2 6 7 3 5 5 4 4 6 9 8 7 7 9 8 8 6 7 4 8 7
8 10 13 18 26 25 24 19 11 9 8 6 4 6 6 4 5 3 4 4 3 3 11 6 5 4 3 4 3 6 1 2 3 3 9 1 6 8 5 3 2 4 7 9 8 8 9 9 7 5 6 7 9 8
14 14 17 29 28 25 18 15 16 8 7 6 5 5 6 2 3 3 1 0 3 1 4 5 6 4 3 6 3 6 4 5 6 6 1 4 8 5 3 3 5 6 5 6 5 7 8 7 8 6 3 5 4 5
18 16 13 26 23 15 8 10 9 6 7 7 10 3 2 2 4 3 4 2 1 2 2 4 5 4 3 6 5 5 9 8 3 2 3 5 6 4 3 5 6 5 5 5 5 5 5 6 6 5 4 3 4 4
14 5 18 23 21 22 23 9 6 11 7 8 3 1 0 1 1 3 2 3 4 2 4 3 6 2 4 5 3 1 3 2 3 3 3 3 3 3 4 6 6 5 5 5 3 4 4 3 4 4 4 3 4 5
8 10 15 12 8 10 6 8 7 8 9 2 4 3 1 1 2 2 3 4 3 3 3 3 5 6 3 6 3 3 1 2 2 2 2 3 4 4 4 5 4 3 4 3 3 4 4 4 3 2 2 2 2 4
10 9 15 15 10 8 7 7 6 7 1 1 1 1 2 2 5 5 5 6 5 4 5 5 9 3 1 1 0 2 2 2 2 2 2 3 4 4 5 4 3 3 2 2 2 1 1 2 2 2 3 3 3 3
24 21 16 22 10 6 8 5 3 6 3 1 3 3 3 3 2 4 8 7 5 5 10 8 3 0 1 1 1 0 2 2 1 2 2 2 3 3 4 3 2 2 2 2 1 1 1 2 2 3 3 4 3 4
9 9 13 7 6 9 7 3 5 3 3 4 1 2 3 2 4 6 6 6 8 7 4 3 1 1 1 1 1 1 2 3 2 0 1 2 2 3 2 1 1 2 1 1 1 3 2 3 3 3 3 3 3 4
3 11 5 7 7 5 6 4 3 2 3 3 3 3 4 3 4 5 3 9 6 3 3 3 3 2 2 3 2 1 0 2 1 2 2 2 3 3 2 1 3 2 2 3 3 4 4 3 2 1 2 3 2 2
7 7 7 8 7 8 1 3 4 5 4 2 1 4 4 3 2 2 6 5 3 2 2 2 3 1 1 2 2 1 1 2 2 3 3 3 3 3 2 3 2 3 4 3 2 2 2 2 3 3 1 1 1 2
13 11 9 6 7 2 2 5 3 4 4 5 4 4 4 3 3 5 6 3 2 2 4 6 4 2 1 2 2 3 3 0 3 3 2 1 3 3 3 3 3 4 5 2 2 3 2 3 3 2 1 1 2 2
11 13 8 9 5 6 7 6 6 6 4 3 4 4 3 3 5 6 3 2 3 3 4 4 3 3 1 3 3 3 3 3 1 4 4 3 1 3 3 2 3 4 3 2 2 1 2 2 3 3 3 3 6 7
12 6 6 3 5 5 3 4 5 3 2 5 3 2 3 5 7 4 1 2 2 2 3 2 2 3 3 3 3 5 4 2 2 1 4 4 4 3 2 3 3 4 2 2 3 2 3 3 4 6 6 7 7 7
8 5 4 1 1 2 5 3 2 5 6 4 3 4 5 8 4 2 2 1 1 2 2 2 2 3 4 6 5 4 4 3 6 5 5 4 5 5 5 3 3 4 1 3 3 3 5 7 7 7 8 6 5 6
3 3 5 6 5 3 5 4 6 4 2 2 2 7 5 3 2 2 2 2 2 2 3 3 3 3 3 4 5 5 5 3 6 6 2 2 3 3 3 3 4 10 5 4 5 5 6 7 8 8 9 10 9 5
5 3 3 7 5 7 6 3 1 2 2 2 4 3 2 2 2 2 2 1 2 2 3 4 4 2 4 3 3 3 3 0 4 5 4 4 4 4 1 2 4 4 5 5 9 11 10 10 10 10 10 8 7 6
4 1 5 4 7 6 3 2 2 2 1 2 1 2 3 2 2 0 0 2 2 3 3 3 4 2 4 4 7 7 3 2 3 4 2 4 5 5 5 6 6 5 4 5 7 8 10 9 8 5 5 5 4 6
1 3 6 5 5 2 2 2 2 1 0 3 2 4 1 2 3 1 1 2 1 2 3 5 6 3 2 6 3 6 6 2 3 6 7 7 8 8 8 8 7 6 6 7 7 8 8 8 7 8 9 10 10 9
4 4 5 5 0 2 2 2 2 3 3 3 3 3 3 3 2 3 1 3 3 4 4 2 4 10 6 4 4 5 10 8 7 7 8 7 8 9 8 7 7 7 8 9 9 9 10 11 10 10 10 12 12 11
4 3 4 4 3 2 2 2 4 2 4 3 3 1 2 2 3 4 2 2 3 3 4 5 7 8 10 8 7 7 7 5 8 13 15 15 15 13 10 7 7 8 10 10 10 10 12 14 13 14 13 13 14 14
Wind_Direction
235 270 261 226 228 247 252 249 222 195 171 172 178 176 176 187 189 195 104 134 124 100 135 148 147 152 132 151 147 152 112 215 107 151 168 194 154 205 140 153 177 157 147 174 92 123 267 150 82 169 196 40 152 154
208 296 259 218 207 283 273 244 204 204 183 176 177 179 176 188 192 188 107 76 78 77 103 66 67 346 231 144 123 180 141 152 157 151 198 130 140 170 142 203 142 207 183 178 186 205 176 179 161 164 136 147 176 153
196 194 330 316 272 289 281 240 212 202 203 180 179 182 178 182 191 188 128 141 88 103 54 91 83 8 36 65 120 133 176 164 174 136 149 156 170 148 168 219 125 251 172 162 119 208 197 207 31 202 161 162 134 127
212 169 153 339 349 308 248 218 209 203 193 188 186 184 186 187 186 180 152 165 103 96 113 118 330 28 339 63 63 41 118 77 92 83 109 140 144 199 187 150 174 178 142 161 268 232 41 241 209 179 161 137 121 104
126 147 132 53 351 318 182 181 183 183 186 187 189 192 189 183 174 147 115 64 68 131 118 126 122 1 31 102 85 82 116 108 117 94 92 179 124 125 1 59 227 192 167 175 213 184 165 202 192 168 160 171 163 148
35 101 116 90 24 328 84 91 118 156 187 172 185 194 187 142 127 122 86 332 95 110 112 113 318 20 75 103 93 81 64 56 65 135 156 265 308 112 149 209 232 186 192 183 200 150 103 355 161 161 166 164 163 156
59 56 77 69 42 51 90 89 67 116 121 149 157 155 138 142 145 139 164 146 130 109 92 105 88 47 30 70 57 80 45 72 72 124 75 124 50 78 102 223 227 202 186 120 124 118 52 238 184 165 145 143 134 112
76 75 77 84 91 51 101 114 121 121 136 117 153 138 132 116 93 50 98 129 103 90 83 109 93 108 198 108 102 342 97 105 32 130 46 87 58 61 256 236 195 141 114 122 167 34 354 111 121 111 115 127 137 160
78 69 78 98 102 86 117 107 115 147 131 98 132 124 79 51 96 102 109 80 59 95 114 112 135 158 126 108 116 97 152 96 286 118 152 140 146 225 224 188 181 181 178 174 109 78 77 132 150 146 136 151 160 174
66 100 88 112 111 106 108 101 109 100 95 89 47 52 84 80 127 120 55 59 42 45 56 94 109 128 127 149 108 113 42 135 156 155 121 185 251 247 206 217 197 181 150 140 115 138 140 155 170 174 187 176 175 171
115 110 111 114 115 118 114 117 104 92 62 43 38 46 110 93 72 55 97 102 139 77 57 116 108 124 231 115 119 353 144 166 159 186 181 209 267 252 251 209 186 159 162 175 67 138 150 155 171 168 164 164 150 152
121 122 108 123 117 107 135 127 82 60 71 114 88 89 56 48 76 93 77 100 88 151 141 111 139 117 111 117 109 121 102 178 164 140 161 252 250 353 344 341 17 137 151 120 77 125 122 129 152 158 152 161 159 140
93 114 113 122 104 70 137 100 94 101 76 54 39 43 15 352 93 160 146 107 112 183 167 148 125 118 122 83 83 114 122 122 134 95 221 233 345 7 350 343 36 59 97 105 95 86 93 100 92 115 138 113 128 155
131 121 111 105 105 101 100 80 66 65 67 64 30 30 21 7 21 25 115 140 228 154 128 113 91 102 117 83 115 95 66 159 189 217 232 357 346 330 347 346 68 89 99 104 103 103 105 107 97 89 121 137 146 171
122 122 112 106 98 93 88 67 51 51 66 80 56 38 35 308 316 290 68 59 253 162 102 98 77 84 82 102 65 119 121 202 218 232 330 339 319 325 13 43 89 85 77 79 88 99 100 109 113 115 109 118 133 134
71 59 103 99 86 67 94 78 41 66 53 62 42 56 19 13 306 354 6 25 338 58 90 55 107 94 84 112 135 188 146 209 239 287 311 320 322 355 33 70 71 76 86 98 79 91 110 113 128 133 112 165 181 155
68 43 106 99 88 62 45 71 55 48 79 52 30 47 129 204 9 311 314 326 304 49 74 103 78 138 105 62 60 28 193 279 305 320 310 312 331 23 67 76 68 74 92 89 85 75 92 99 110 102 132 209 188 213
78 104 99 77 74 54 37 42 75 65 65 5 74 317 46 283 308 348 354 338 5 61 48 97 105 65 96 137 238 243 271 263 201 241 318 340 357 39 61 84 58 71 88 91 102 114 114 127 137 205 185 204 171 231
86 66 63 57 74 86 66 27 62 90 116 169 111 55 78 74 41 10 349 4 45 42 78 46 63 74 126 173 188 357 359 347 306 342 352 355 6 39 65 73 79 74 78 68 78 138 194 212 204 191 196 152 211 238
69 44 43 45 54 71 61 12 58 86 76 205 60 40 73 49 357 23 24 17 29 44 44 41 55 70 94 349 45 232 265 304 319 13 21 32 23 40 48 45 43 12 32 22 15 204 286 305 247 208 197 207 199 245
47 4 29 56 50 62 83 10 56 67 108 72 344 49 71 58 35 18 18 358 57 36 60 43 54 342 341 96 24 325 355 7 34 164 237 296 336 9 19 53 50 42 54 334 281 280 221 227 234 214 206 235 226 240
342 13 51 25 77 65 78 11 68 65 75 96 73 40 42 42 29 19 339 44 57 29 15 345 349 336 13 51 349 27 303 290 253 278 284 308 344 350 348 348 9 303 264 239 221 246 260 259 279 236 214 268 276 260
16 30 44 17 74 46 23 348 68 7 89 88 74 67 38 54 18 316 70 60 86 33 325 319 323 296 329 328 314 17 44 352 340 342 329 301 280 267 274 281 207 231 285 283 215 245 258 272 286 274 262 295 294 297
33 46 37 42 23 90 358 28 29 53 49 34 53 73 41 24 330 59 73 56 7 323 4 357 350 350 352 348 16 340 316 189 300 293 249 210 301 289 207 249 250 234 225 243 250 263 275 284 319 327 322 305 287 270
64 359 24 8 5 35 36 20 6 46 66 2 78 34 2 347 65 54 58 16 352 352 349 348 1 15 351 291 277 274 258 174 297 307 281 180 245 318 307 268 272 256 167 133 310 10 334 341 327 305 276 253 271 278
67 323 47 324 348 54 342 61 32 35 77 59 33 288 21 68 59 41 316 303 304 305 319 327 308 319 304 225 284 316 296 186 134 246 275 185 195 195 261 299 322 306 202 148 116 325 295 277 274 278 275 269 259 265
64 348 331 353 109 94 56 30 55 63 55 44 335 17 54 64 52 277 288 253 255 267 267 274 246 245 273 301 286 264 265 213 214 236 262 241 231 208 209 214 238 249 169 194 203 210 264 284 285 279 276 273 243 243
123 26 64 332 44 18 94 53 39 34 315 295 57 37 89 116 184 214 201 241 230 301 294 284 251 221 256 271 279 290 296 296 286 268 273 276 242 220 207 225 246 268 270 235 241 244 246 251 259 264 263 265 270 237
44 331 63 34 39 43 47 67 352 253 208 108 105 106 142 228 202 163 252 302 20 33 352 332 313 327 294 278 270 278 267 86 37 25 10 308 340 317 244 242 257 263 261 265 272 272 262 252 249 246 248 254 261 262
331 44 83 56 56 35 318 182 311 264 212 187 251 64 63 21 247 23 26 13 19 315 275 260 283 343 309 330 320 329 288 175 172 159 233 281 254 263 278 280 278 266 247 250 267 275 280 288 290 290 277 271 264 261
324 40 68 48 77 295 250 293 272 184 163 41 25 84 149 298 310 229 183 180 169 330 346 333 332 296 317 332 327 322 321 297 223 244 246 265 277 279 280 279 276 273 267 261 261 261 264 265 260 265 266 266 265 262
26 59 112 97 132 292 5 32 18 63 10 41 5 22 10 39 39 299 212 113 37 2 311 298 313 327 318 290 259 230 243 276 287 280 277 279 279 276 277 278 275 270 268 268 267 266 266 264 269 268 269 269 269 268
57 53 62 91 70 40 346 57 35 52 37 35 348 223 218 161 134 264 299 189 178 236 295 289 291 303 308 297 284 290 290 275 282 291 297 294 290 288 288 282 277 272 270 269 268 271 273 273 272 271 272 271 272 272